Location: Newark
(48.5156°N, 1.8989°W)
Time: 15:45:11
(UTC+00:00)

Vanguard 1 Rocket - Pass Details

Date: 19 November 2019
Orbit: 650 x 4226 km, 34.3° (Epoch: 09 December)

Event Time Altitude Azimuth Distance (km) Brightness Sun altitude
Exits shadow 04:18:01 14° 162° (SSE) 1,880 9.1 -30.0°
Drops below altitude 10° 04:20:18 10° 134° (SE) 2,285 9.9 -29.6°
Sets 04:24:19 0° 110° (ESE) 3,595 11.5 -29.0°
